CYLLS CYXU-CYXU

Flight info

Callsign CYLLS
Flight time 0h 9m
Altitude 1900
Route CIRCUITS
Aircraft BC90

Departure

Time 2026-04-29 23:32
Airport London International Airport (CYXU)

Arrival

Time 2026-04-29 23:41
Airport London International Airport (CYXU)
Time Latitude Longitude Altitude Speed Heading
2026-04-29 23:16 43.03546 -81.16527 907 ft 0 kts 15°
2026-04-29 23:23 43.03550 -81.16526 907 ft 0 kts 14°
2026-04-29 23:25 43.03575 -81.16498 907 ft 10 kts 58°
2026-04-29 23:25 43.03603 -81.16419 907 ft 0 kts 61°
2026-04-29 23:26 43.03605 -81.16415 907 ft 3 kts 60°
2026-04-29 23:27 43.03627 -81.16328 907 ft 15 kts 85°
2026-04-29 23:27 43.03642 -81.16134 907 ft 23 kts 81°
2026-04-29 23:27 43.03676 -81.15919 907 ft 21 kts 94°
2026-04-29 23:27 43.03698 -81.15723 909 ft 21 kts 95°
2026-04-29 23:28 43.03588 -81.15553 909 ft 27 kts 139°
2026-04-29 23:28 43.03433 -81.15367 906 ft 31 kts 137°
2026-04-29 23:28 43.03262 -81.15164 904 ft 33 kts 139°
2026-04-29 23:28 43.03109 -81.14967 900 ft 30 kts 147°
2026-04-29 23:29 43.02942 -81.14777 900 ft 30 kts 142°
2026-04-29 23:29 43.02894 -81.14655 900 ft 3 kts 44°
2026-04-29 23:29 43.02921 -81.14615 900 ft 0 kts 49°
2026-04-29 23:31 43.02927 -81.14607 900 ft 5 kts 49°
2026-04-29 23:31 43.02997 -81.14550 903 ft 22 kts 345°
2026-04-29 23:31 43.03355 -81.14952 904 ft 115 kts 320°
2026-04-29 23:31 43.04038 -81.15695 1299 ft 124 kts 321°
2026-04-29 23:32 43.04664 -81.16376 1730 ft 112 kts 322°
2026-04-29 23:32 43.05271 -81.17024 2101 ft 114 kts 323°
2026-04-29 23:32 43.05943 -81.17682 2388 ft 126 kts 332°
2026-04-29 23:32 43.06916 -81.17738 2461 ft 164 kts 26°
2026-04-29 23:33 43.07463 -81.16361 2348 ft 180 kts 81°
2026-04-29 23:33 43.07563 -81.14718 2494 ft 166 kts 78°
2026-04-29 23:33 43.07719 -81.13153 2489 ft 166 kts 78°
2026-04-29 23:33 43.07851 -81.11674 2624 ft 136 kts 80°
2026-04-29 23:34 43.07928 -81.10376 2293 ft 139 kts 82°
2026-04-29 23:34 43.07899 -81.09045 2002 ft 139 kts 97°
2026-04-29 23:34 43.07615 -81.07832 1878 ft 126 kts 111°
2026-04-29 23:34 43.07263 -81.06749 1762 ft 122 kts 112°
2026-04-29 23:35 43.06688 -81.05865 1718 ft 126 kts 159°
2026-04-29 23:35 43.05922 -81.05878 1920 ft 111 kts 211°
2026-04-29 23:35 43.05543 -81.06783 1973 ft 122 kts 283°
2026-04-29 23:35 43.05929 -81.08004 1868 ft 146 kts 302°
2026-04-29 23:36 43.06384 -81.09171 2220 ft 141 kts 289°
2026-04-29 23:36 43.06313 -81.10455 2539 ft 144 kts 256°
2026-04-29 23:36 43.05761 -81.11620 2726 ft 157 kts 231°
2026-04-29 23:36 43.04871 -81.12766 2308 ft 192 kts 233°
2026-04-29 23:37 43.04830 -81.14312 2778 ft 155 kts 291°
2026-04-29 23:37 43.05510 -81.14840 3292 ft 127 kts 24°
2026-04-29 23:37 43.05687 -81.13590 3180 ft 167 kts 114°
2026-04-29 23:37 43.04791 -81.12498 3190 ft 182 kts 139°
2026-04-29 23:38 43.03693 -81.11401 2836 ft 208 kts 145°
2026-04-29 23:38 43.02465 -81.10297 2787 ft 206 kts 145°
2026-04-29 23:38 43.01272 -81.09332 2535 ft 212 kts 154°
2026-04-29 23:38 42.99862 -81.08930 2204 ft 187 kts 184°
2026-04-29 23:39 42.98719 -81.09199 2123 ft 147 kts 231°
2026-04-29 23:39 42.98694 -81.10378 2022 ft 132 kts 325°
2026-04-29 23:39 42.99538 -81.10819 1871 ft 133 kts 338°
2026-04-29 23:39 43.00309 -81.11379 1799 ft 131 kts 327°
2026-04-29 23:40 43.01004 -81.12161 1645 ft 115 kts 320°
2026-04-29 23:40 43.01546 -81.12810 1314 ft 97 kts 321°
2026-04-29 23:40 43.02114 -81.13483 1085 ft 124 kts 317°
2026-04-29 23:40 43.02672 -81.14143 907 ft 79 kts 320°
2026-04-29 23:41 43.02948 -81.14501 903 ft 33 kts 276°
2026-04-29 23:41 43.02873 -81.14671 900 ft 21 kts 191°
2026-04-29 23:41 43.02745 -81.14541 900 ft 26 kts 139°
2026-04-29 23:41 43.02594 -81.14359 903 ft 30 kts 138°
2026-04-29 23:42 43.02436 -81.14172 907 ft 28 kts 139°
2026-04-29 23:42 43.02312 -81.13993 910 ft 13 kts 97°
2026-04-29 23:42 43.02343 -81.13921 912 ft 0 kts 46°